SCP
0 1 1 1 1 0 0 0 0 0 0 0 0 0 0 0 0 0 0 0 0 0 0 0 0 0 0 0 0 0 0 0 0 0 0 0 0 0 0 0 0 0 0
1 1 1 1 1 1 1 1 0 0 0 0 0 0 0 0 0 0 0 0 0 0 0 0 0 0 0 0 0 0 0 0 0 0 0 0 0 0 0 0 0 0 0
1 1 1 1 1 1 1 1 1 0 0 0 0 0 0 0 0 0 0 0 0 0 0 0 0 0 0 0 0 0 0 0 0 0 0 0 0 0 0 0 0 0 0
1 1 1 1 1 1 1 1 1 1 0 0 0 0 0 0 0 0 0 0 0 0 0 0 0 0 0 0 0 0 0 0 0 0 0 0 0 0 0 0 0 0 0
1 0 1 1 2 1 1 1 1 1 1 1 1 0 0 0 0 0 0 0 0 0 0 0 0 0 0 0 0 0 0 0 0 0 0 0 0 0 0 0 0 0 0
0 0 1 1 2 1 1 1 1 1 1 1 1 1 0 0 0 0 0 0 0 0 0 0 0 0 0 0 0 0 0 0 0 0 0 0 0 0 0 0 0 0 0
0 0 1 1 1 1 1 1 1 1 1 1 1 1 0 0 0 0 0 0 0 0 0 0 0 0 0 0 0 0 0 0 0 0 0 0 0 0 0 0 0 0 0
1 1 0 1 1 1 1 1 1 1 1 1 1 1 1 0 0 0 0 0 0 0 0 0 0 0 0 0 0 0 0 0 0 0 0 0 0 0 0 0 0 0 0
1 1 0 0 1 1 1 1 1 1 1 1 1 1 1 0 0 0 0 0 0 0 0 0 0 0 0 0 0 0 0 0 0 0 0 0 0 0 0 0 0 0 0
1 1 0 0 0 0 0 1 1 1 1 1 1 0 0 0 0 0 0 0 0 0 0 0 0 0 0 0 0 0 0 0 0 0 0 0 0 0 0 0 0 0 0
1 1 1 0 0 0 0 0 0 0 1 0 0 0 0 0 0 0 0 0 0 0 0 0 0 0 0 0 0 0 0 0 0 0 0 0 0 0 0 0 0 0 0
0 0 1 1 0 0 0 0 0 0 0 0 0 0 0 0 0 0 0 0 0 0 0 0 0 0 0 0 0 0 0 0 0 0 0 0 0 0 0 0 0 0 0
0 0 0 0 0 0 0 0 0 0 0 0 0 0 0 0 0 0 0 0 0 0 0 0 0 0 0 0 0 0 0 0 0 0 0 0 0 0 0 0 0 0 0
0 0 0 0 0 0 0 0 0 0 0 0 0 0 0 0 0 0 0 0 0 0 0 0 0 0 0 0 0 0 0 0 0 0 0 0 0 0 0 0 0 1 1
0 0 0 0 0 0 0 0 0 0 0 0 0 0 0 0 0 0 0 0 0 0 0 0 0 0 0 0 0 0 0 0 0 0 0 0 0 0 0 0 1 1 1
0 0 0 0 0 0 0 0 0 0 0 0 0 0 0 0 0 0 0 0 0 0 0 0 0 0 0 0 0 0 0 0 0 0 0 0 0 0 0 0 0 1 1
0 0 0 0 0 0 0 0 0 0 0 1 1 1 0 0 0 0 0 0 0 0 0 0 0 0 0 0 0 0 0 0 0 0 0 0 0 0 0 0 0 0 1
0 0 0 0 0 0 0 0 0 0 0 1 1 1 1 0 0 0 0 0 0 0 0 0 0 0 0 0 0 0 0 0 0 0 0 0 0 0 0 0 0 0 0
0 0 0 0 0 0 0 0 0 0 0 1 1 1 1 1 1 1 0 0 0 0 0 0 0 0 0 0 0 0 0 0 0 0 0 0 0 0 0 0 0 0 0
0 0 0 0 0 0 0 0 0 0 0 1 1 1 1 1 1 1 0 0 0 0 0 0 0 0 0 0 0 0 0 0 0 0 0 0 0 0 0 0 0 0 0
0 0 0 0 0 0 0 0 0 0 0 1 1 1 1 1 1 1 1 1 0 0 0 0 0 0 0 0 0 0 0 0 0 0 0 0 0 0 0 0 0 0 0
1 1 0 0 0 0 0 0 0 0 0 0 1 2 2 1 1 1 1 1 1 1 0 0 0 0 0 0 0 0 0 0 0 0 0 0 0 0 0 0 0 0 0
1 1 1 0 0 0 0 0 0 0 0 0 1 2 2 2 1 1 1 1 1 1 0 0 0 0 0 0 0 0 0 0 0 0 0 0 0 0 0 0 0 0 0
1 1 1 1 0 0 0 0 0 0 0 0 1 2 2 1 1 1 1 1 0 0 0 0 0 0 0 0 0 0 0 0 0 0 0 0 0 0 0 0 0 0 0
1 1 1 1 0 0 0 0 0 0 0 0 1 1 1 1 1 1 0 0 0 0 0 0 0 0 0 0 0 0 0 0 0 0 0 0 0 0 0 0 0 0 0
1 1 1 1 1 0 0 0 0 0 0 0 1 1 1 0 0 0 0 0 0 0 0 0 0 0 0 0 0 0 0 0 0 0 0 0 0 0 0 0 0 0 0
Wind_Speed
10 12 12 12 12 12 12 12 11 11 11 11 11 11 11 12 12 12 11 11 11 11 12 12 13 12 12 12 11 11 11 11 10 9 9 9 10 10 10 10 9 7 10
13 14 12 12 12 12 12 11 11 11 11 11 11 11 11 11 12 11 11 10 10 11 11 11 11 11 11 11 10 10 9 8 7 6 5 6 7 8 9 9 9 5 9
14 14 12 11 12 12 11 11 10 10 10 11 10 10 10 10 10 10 10 10 9 10 10 10 10 10 9 9 9 8 8 6 5 5 4 1 4 7 7 7 7 7 7
13 13 11 11 12 12 11 10 10 9 10 10 10 10 10 10 10 10 9 9 8 9 9 8 8 8 8 8 7 7 6 5 6 6 3 2 3 6 6 6 6 6 6
11 11 12 12 11 11 11 10 9 9 9 9 9 9 9 9 9 8 8 8 7 8 7 8 7 7 7 6 6 5 5 5 7 6 2 3 3 5 6 6 6 6 6
10 11 11 11 11 11 10 9 9 9 8 8 8 8 8 8 8 7 7 7 7 7 6 7 6 6 6 5 5 5 5 6 6 3 2 3 3 5 5 5 5 5 5
9 10 10 10 9 9 9 9 9 8 8 7 7 7 8 7 7 7 6 6 6 6 6 5 5 5 5 4 4 4 5 6 4 2 2 3 3 4 4 4 5 5 5
10 9 8 8 8 8 7 7 7 7 7 6 6 7 7 7 6 6 5 5 5 5 4 4 3 3 3 3 3 4 5 6 5 4 2 2 3 3 3 4 4 4 4
9 8 7 6 6 6 7 6 6 6 6 6 6 6 6 6 5 4 4 4 4 3 3 3 2 2 1 2 2 3 4 6 4 3 2 2 2 2 2 4 4 3 4
7 7 5 5 4 4 4 6 6 6 6 6 6 5 5 5 4 4 3 3 2 2 1 2 1 1 1 1 3 4 5 5 3 2 1 1 2 1 3 4 4 4 4
6 5 4 4 3 3 4 5 5 6 6 6 5 4 4 2 3 3 3 3 2 1 1 1 1 2 2 3 4 5 4 2 2 1 1 1 1 1 3 4 5 5 5
5 4 3 3 3 3 3 4 2 3 3 2 2 2 1 1 2 2 3 2 1 1 1 2 3 3 3 2 3 4 2 2 2 1 1 1 2 2 4 5 5 5 6
3 3 3 3 2 3 2 2 1 2 2 1 2 1 1 1 2 2 1 1 1 1 1 2 2 2 2 1 1 1 2 1 1 1 1 2 2 3 4 5 6 6 7
3 3 2 2 2 2 2 2 2 2 1 1 1 1 1 1 1 1 1 1 0 0 1 1 1 2 2 2 2 2 2 1 1 1 1 3 3 5 6 6 7 8 8
4 3 2 2 2 2 2 1 2 1 1 2 2 1 2 1 1 1 1 1 1 0 1 1 1 1 2 2 2 2 2 2 2 2 1 3 4 5 7 8 8 8 8
4 3 3 3 3 2 2 2 2 2 2 2 2 1 1 1 1 1 1 1 1 1 1 1 2 1 1 1 2 3 3 2 2 3 2 3 4 4 6 8 8 9 9
4 4 4 3 3 3 2 2 1 1 1 2 2 2 2 2 2 1 1 1 1 1 2 2 2 1 2 2 2 3 3 3 3 3 3 2 2 4 5 7 8 8 9
5 4 5 4 4 3 3 2 1 1 2 2 2 2 3 3 2 1 1 1 2 1 1 2 2 2 2 2 2 3 3 3 3 3 3 2 2 2 3 4 5 6 7
5 5 5 5 4 4 3 2 2 2 2 2 2 2 2 3 3 2 1 1 2 1 1 2 2 2 2 3 3 3 3 3 3 2 2 2 2 2 1 1 2 3 5
5 5 5 5 5 4 3 2 2 2 2 2 1 1 2 2 2 1 1 2 2 1 2 2 2 2 2 2 3 3 4 3 2 2 2 2 2 2 2 2 1 2 4
6 6 6 5 5 3 2 2 1 2 2 1 1 1 1 1 2 2 2 1 2 1 1 2 2 2 2 2 2 3 4 3 2 2 2 2 2 2 2 2 1 1 2
6 6 5 5 5 4 3 2 1 1 1 1 2 2 2 2 1 1 1 1 2 1 2 2 2 1 1 1 1 2 3 3 2 2 1 1 2 2 3 3 3 2 2
6 5 5 5 5 4 4 2 2 1 1 2 2 2 2 2 2 2 1 1 1 1 1 2 2 1 1 1 1 0 1 3 4 2 2 1 2 2 3 3 3 3 3
6 5 5 5 5 4 4 3 3 2 1 1 1 1 2 2 2 2 2 2 2 1 2 2 2 2 2 1 2 1 2 2 2 3 2 2 3 3 3 3 3 3 3
6 5 5 5 5 5 4 4 2 2 2 2 1 2 2 2 3 3 3 2 2 2 2 2 2 2 1 1 1 1 2 2 2 3 4 4 4 3 3 3 3 2 3
5 5 5 5 5 5 5 5 4 3 3 4 4 3 2 2 2 3 3 3 3 2 3 2 1 2 1 2 1 1 1 1 2 3 4 5 4 4 4 3 2 2 3
Wind_Direction
121 128 136 132 129 125 121 116 113 112 113 110 106 103 98 95 91 86 85 86 85 84 81 78 75 74 71 69 67 65 64 61 60 61 64 63 62 61 56 46 46 50 55
122 129 134 130 129 125 120 116 115 115 115 114 109 105 102 98 94 89 85 86 87 87 83 79 76 73 71 68 67 64 60 54 46 42 52 62 67 61 54 49 47 50 48
121 130 134 128 128 124 121 118 119 120 120 116 112 107 104 102 97 92 87 84 85 87 85 82 78 74 71 68 65 61 55 42 19 358 343 47 83 66 54 49 46 44 40
122 132 132 128 127 125 123 122 122 122 120 116 113 110 107 103 98 94 89 87 87 86 84 84 81 76 73 69 63 56 46 20 350 334 334 51 69 65 51 42 38 34 33
117 125 125 128 128 127 126 125 125 121 118 116 111 109 107 104 99 95 93 90 89 86 83 80 79 78 72 67 58 46 26 355 337 324 341 47 65 62 47 35 29 29 27
112 116 122 124 126 128 127 126 127 121 118 117 113 109 107 105 101 98 94 95 90 86 83 82 78 76 70 61 48 30 5 343 331 321 13 43 65 61 41 27 28 24 20
105 111 122 118 120 124 127 128 127 124 121 119 116 112 111 106 103 100 96 96 94 89 85 82 77 71 64 53 38 17 350 334 318 330 17 50 67 56 32 27 20 16 10
98 103 113 108 112 113 116 122 122 122 118 116 113 115 116 111 109 107 105 102 96 91 86 81 73 70 57 38 19 355 334 321 327 335 4 65 73 53 29 12 4 4 359
98 104 110 114 112 108 111 112 116 114 114 117 115 111 111 112 113 107 103 104 101 94 86 78 76 68 47 15 344 325 313 311 312 308 337 59 68 51 12 351 344 341 336
86 94 106 119 117 119 118 109 109 106 104 109 110 108 116 123 125 127 121 106 97 91 96 96 98 77 313 299 294 291 291 303 287 296 320 82 90 43 344 332 327 319 315
71 78 89 102 110 113 124 123 116 111 102 103 106 119 136 157 149 144 131 116 105 92 122 162 227 240 244 254 260 268 282 270 287 304 335 122 157 298 314 313 313 307 305
67 62 63 75 87 99 114 123 124 124 122 125 119 135 164 99 85 97 117 135 148 181 239 244 247 249 246 245 250 252 262 270 281 307 300 205 235 278 292 298 302 302 299
77 67 61 60 74 95 98 117 113 109 117 122 110 116 82 77 86 95 110 130 180 209 239 241 246 246 246 257 264 246 265 280 299 304 303 256 258 273 283 288 290 295 295
74 60 42 59 65 66 88 93 90 93 99 92 93 74 65 62 58 70 97 126 206 224 243 250 260 270 278 278 284 290 290 284 269 272 278 265 259 271 281 283 285 288 290
58 56 40 30 53 59 64 69 74 75 86 81 68 48 53 55 38 34 27 28 335 320 280 276 279 288 296 298 295 292 286 283 279 275 280 266 260 265 280 284 284 285 287
42 41 39 35 29 38 54 56 57 53 57 63 62 32 40 43 38 32 15 11 346 336 330 307 299 301 300 302 299 297 287 279 276 273 266 275 268 266 274 284 287 287 288
35 37 31 33 33 32 33 55 55 56 63 61 56 35 31 25 26 35 16 10 350 341 346 331 322 328 327 317 304 296 289 276 271 274 272 264 267 266 263 273 284 292 296
34 36 34 29 28 24 17 28 58 56 60 55 48 36 28 19 17 26 26 6 350 2 3 337 330 327 313 305 301 294 290 280 271 266 272 277 279 278 267 273 293 300 303
35 35 38 34 26 20 19 27 42 58 66 63 52 36 20 15 15 25 20 0 354 8 15 351 342 333 318 316 302 294 288 280 272 277 282 289 285 286 294 309 298 301 302
40 37 37 38 28 20 22 16 33 46 54 68 64 47 35 18 12 20 16 4 5 20 16 6 346 344 337 324 311 301 286 275 286 289 285 287 289 296 296 293 281 287 293
40 34 31 33 24 23 20 1 18 26 21 25 40 40 36 29 25 30 13 357 358 9 4 358 345 343 348 346 325 309 287 271 282 297 303 313 322 326 310 297 288 285 291
37 28 25 28 23 19 12 359 352 350 22 14 15 17 11 11 14 20 13 358 351 347 352 347 349 347 345 5 332 312 307 302 322 286 305 326 335 339 335 335 326 319 312
32 24 16 18 21 18 12 13 13 21 28 18 4 3 4 6 6 4 360 354 341 342 323 318 322 325 311 291 312 337 299 292 315 301 319 337 335 328 321 324 327 330 331
23 19 17 18 21 19 15 15 24 21 11 325 329 334 354 4 3 4 2 354 340 335 325 317 320 310 306 300 295 291 283 300 302 303 304 313 320 311 304 315 313 312 317
18 17 14 18 22 16 13 11 13 4 342 334 351 1 3 2 358 360 1 359 349 342 342 346 346 337 317 304 296 300 284 290 293 281 292 311 313 304 302 303 303 312 318
19 17 19 22 19 13 13 10 11 1 355 360 2 358 352 349 347 356 358 356 347 340 337 329 327 323 320 312 299 295 285 268 281 275 281 299 301 302 302 304 313 328 325